Estación de La Cruz

Ultimos registro cada 15 minutos 53
Estación Fecha / Hora Temperatura Humedad Lluvia Velocidad Dirección Radiación Presion
53 La Cruz 04-05-2026 13:00 26,4 26,1 0 0 181 679,4 996,4
52 La Cruz 04-05-2026 12:45 25,7 28,4 0 0 161 640,6 996,8
51 La Cruz 04-05-2026 12:30 25,4 28 0 0 161 543,1 996,9
50 La Cruz 04-05-2026 12:15 25,1 29,2 0 0 195 623,1 997
49 La Cruz 04-05-2026 12:00 24,4 27,8 0 0 223 586,9 997,4
48 La Cruz 04-05-2026 11:45 23,8 29 0 0 180 635,6 997,7
47 La Cruz 04-05-2026 11:30 24,3 28,4 0 0 197 569,4 997,7
46 La Cruz 04-05-2026 11:15 22,9 31,3 0 0 194 586,9 997,7
45 La Cruz 04-05-2026 11:00 21,9 32,4 0 0 215 550,6 997,8
44 La Cruz 04-05-2026 10:45 20,4 34,3 0 0 117 331,9 997,9
43 La Cruz 04-05-2026 10:30 21 35,4 0 0 147 380,6 997,9
42 La Cruz 04-05-2026 10:15 20,3 39 0 0 218 499,4 998
41 La Cruz 04-05-2026 10:00 18,8 38,9 0 0 180 421,9 998,1
40 La Cruz 04-05-2026 09:45 16,9 46,9 0 0 237 209,4 998,2
39 La Cruz 04-05-2026 09:30 16 49,9 0 0 312 124,4 998,1
38 La Cruz 04-05-2026 09:15 14,9 51,7 0 0 326 60,6 998
37 La Cruz 04-05-2026 09:00 13,2 56,6 0 0 292 116,9 997,9
36 La Cruz 04-05-2026 08:45 10,9 63,7 0 0 191 95,6 997,9
35 La Cruz 04-05-2026 08:30 8,9 67,1 0 0 191 50,6 998
34 La Cruz 04-05-2026 08:15 7,2 73,4 0 0 191 41,9 998,1
33 La Cruz 04-05-2026 08:00 4,9 83,2 0 0 191 16,9 997,8
32 La Cruz 04-05-2026 07:45 3,7 83,5 0 0 191 8,1 997,7
31 La Cruz 04-05-2026 07:30 3,7 82,3 0 0 191 4,4 997,7
30 La Cruz 04-05-2026 07:15 4,4 83,1 0 0 191 0,6 997,5
29 La Cruz 04-05-2026 07:00 4,6 83,5 0 0 191 0,6 997,4
28 La Cruz 04-05-2026 06:45 4,3 82,1 0 0 191 0,6 997,4
27 La Cruz 04-05-2026 06:30 4,2 80,2 0 0 191 0,6 997,4
26 La Cruz 04-05-2026 06:15 5,2 78,7 0 0 191 0,6 997,2
25 La Cruz 04-05-2026 06:00 6 74,3 0 0 191 0,6 997,1
24 La Cruz 04-05-2026 05:45 5 79,1 0 0 191 0,6 997,2
23 La Cruz 04-05-2026 05:30 4,2 81 0 0 191 0,6 997,2
22 La Cruz 04-05-2026 05:15 4,9 79,5 0 0 191 0,6 997,2
21 La Cruz 04-05-2026 05:00 5,5 76,1 0 0 191 0,6 996,8
20 La Cruz 04-05-2026 04:45 6,5 72,8 0 0 191 0,6 996,7
19 La Cruz 04-05-2026 04:30 5,2 77,9 0 0 191 0,6 996,8
18 La Cruz 04-05-2026 04:15 4,7 78,5 0 0 191 0,6 996,9
17 La Cruz 04-05-2026 04:00 5,6 80,2 0 0 191 0,6 997
16 La Cruz 04-05-2026 03:45 4,7 79,3 0 0 191 0,6 997,2
15 La Cruz 04-05-2026 03:30 4,9 79,7 0 0 191 0,6 997,2
14 La Cruz 04-05-2026 03:15 5,1 79,3 0 0 191 0,6 997,2
13 La Cruz 04-05-2026 03:00 5,1 77,6 0 0 191 0,6 997,3
12 La Cruz 04-05-2026 02:45 5,9 76,6 0 0 191 0,6 997,3
11 La Cruz 04-05-2026 02:30 6,3 74,7 0 0 191 0,6 997,5
10 La Cruz 04-05-2026 02:15 6,2 75,2 0 0 191 0,6 997,8
9 La Cruz 04-05-2026 02:00 4,9 80,6 0 0 191 0,6 997,9
8 La Cruz 04-05-2026 01:45 5,3 81,8 0 0 191 0,6 998,2
7 La Cruz 04-05-2026 01:30 5,3 82,4 0 0 191 0,6 998,4
6 La Cruz 04-05-2026 01:15 5,6 83,1 0 0 191 0,6 998,3
5 La Cruz 04-05-2026 01:00 5,5 81,9 0 0 191 0,6 998,4
4 La Cruz 04-05-2026 00:45 5,4 82 0 0 191 0,6 998,5
3 La Cruz 04-05-2026 00:30 5,4 79,2 0 0 191 0,6 998,6
2 La Cruz 04-05-2026 00:15 6,4 81 0 0 191 0,6 998,5
1 La Cruz 04-05-2026 00:00 6,3 76,7 0 0 191 0,6 998,7